This demonstration page uses our WeatherBlox Daily Observations layout. Learn more.

38.89511, -77.03637

Hourly Observations for August 1, 2015

Temp ( °F °C ) Dew Point ( °F °C ) Humidity (%) Winds ( mph kmh ) Pressure ( in mb ) Visibility ( mi km ) Precip ( " mm )
12:52 am 00:52 Mostly Clear 79 26 64 18 61 61 SW 7 11 29.91 1013 10 16.09344 0 0
1:52 am 01:52 Mostly Clear 77 25 64 18 65 65 SSW 7 11 29.88 1012 10 16.09344 0 0
2:52 am 02:52 Mostly Clear 75 24 64 18 69 69 S 6 9 29.88 1012 10 16.09344 0 0
3:52 am 03:52 Mostly Clear 75 24 64 18 69 69 S 5 7 29.88 1012 10 16.09344 0 0
4:52 am 04:52 Clear 75 24 64 18 69 69 S 6 9 29.88 1012 10 16.09344 0 0
5:52 am 05:52 Partly Cloudy 73 23 64 18 74 74 SSW 6 9 29.88 1012 10 16.09344 0 0
6:52 am 06:52 Partly Cloudy 75 24 64 18 69 69 SW 5 7 29.88 1012 10 16.09344 0 0
7:52 am 07:52 Partly Cloudy 79 26 64 18 61 61 SSW 6 9 29.88 1012 10 16.09344 0 0
8:52 am 08:52 Mostly Cloudy 82 28 64 18 55 55 S 5 7 29.91 1013 10 16.09344 0 0
9:52 am 09:52 Mostly Cloudy 84 29 63 17 48 48 W 6 9 29.88 1012 10 16.09344 0 0
10:52 am 10:52 Mostly Cloudy 90 32 64 18 43 43 W 7 11 29.88 1012 10 16.09344 0 0
11:52 am 11:52 Mostly Cloudy 88 31 63 17 43 43 W 8 13 29.91 1013 10 16.09344 0 0
12:52 pm 12:52 Mostly Cloudy 90 32 63 17 41 41 WNW 7 11 29.88 1012 10 16.09344 0 0
1:52 pm 13:52 Mostly Cloudy 90 32 64 18 43 43 NW 8 13 29.88 1012 10 16.09344 0 0
2:52 pm 14:52 Mostly Cloudy 88 31 64 18 46 46 SSW 9 15 29.85 1011 10 16.09344 0 0
3:52 pm 15:52 Partly Cloudy 91 33 64 18 41 41 W 9 15 29.85 1011 10 16.09344 0.001 0.001
4:52 pm 16:52 Mostly Cloudy 90 32 63 17 41 41 W 10 17 29.83 1010 10 16.09344 0 0
5:52 pm 17:52 Partly Cloudy 90 32 63 17 41 41 W 10 17 29.83 1010 10 16.09344 0 0
6:52 pm 18:52 Partly Cloudy 90 32 63 17 41 41 NNW 9 15 29.83 1010 10 16.09344 0 0
7:52 pm 19:52 Sunny 88 31 57 14 35 35 N 7 11 29.85 1011 10 16.09344 0 0
8:52 pm 20:52 Mostly Clear 86 30 61 16 43 43 NW 7 11 29.88 1012 10 16.09344 0 0
9:52 pm 21:52 Mostly Clear 84 29 59 15 43 43 W 3 6 29.88 1012 10 16.09344 0 0
10:52 pm 22:52 Mostly Clear 82 28 59 15 45 45 NNW 7 11 29.88 1012 10 16.09344 0 0
11:52 pm 23:52 Mostly Clear 81 27 59 15 48 48 NNW 7 11 29.91 1013 10 16.09344 0 0

Powered by AerisWeather